sat.trackr.live / text

‹ back to catalog

STARLINK-33866

NORAD 63653 · 2025-083V

PAYLOAD ACTIVE UNKNOWN

§ Identity

Operator
Country
US
Launch date
2025-04-25
Launch site
AFETR
Launch vehicle
Mass (kg)
RCS (m²)

Purposes: comms

External: N2YO · Heavens-Above · Gunter

§ Orbital elements

Epoch: 2026-09-20T22:17:03.503328Z

Period
94.27 min
Inclination
43.0019°
Eccentricity
0.0002695
Mean motion
15.27593551 rev/d
Perigee alt
481.2 km
Apogee alt
484.9 km
Semi-major
6,861.1 km
B*
4.8403e-4
RAAN
342.8131°
Arg perigee
268.9266°
Mean anomaly
91.1277°
Rev number
7,995

§ Raw data

STARLINK-338661 63653U 25083V   26263.92851277  .00013087  00000+0  48403-3 0  99912 63653  43.0019 342.8131 0002695 268.9266  91.1277 15.27593551 79955

JSON: /api/v1/satellites/63653 · /tle

For live sub-satellite position, see the globe view (requires WebGL).

§ Visibility from observer

Set your observer location to see the next 7 days of passes ≥ 10°. The values pass through the URL so the page stays shareable.

No JS? Fill the form by hand. The geolocation button needs JavaScript.